STARLINK-3052, 49165

Orbit data source: Space-Track

STARLINK-3052, 49165 is a payload satellite owned by SpaceX/Seattle (US) in LEO that was launched on Tue, 14 Sep 2021 UTC via an FALCON 9 launch vehicle from the Air Force Western Test Range (AFWTR). Payload-class satellites include a variety of spacecraft equipped with specific instruments for various scientific and technological missions. These include communications satellites like Starlink; space stations such as the ISS; scientific satellites like the Hubble; Earth observation satellites from companies like Planet Labs, Umbra, and HawkEye 360; GPS; miniature CubeSats for education and research; and military/defense satellites.

Loading next visibility...
Identifier
49165, 2021-082AM
Orbit
LEO
Country
Flag of USUS
Related business
Manufacturer
SpaceX/Seattle
Mission
Operational Commercial Communications
Bus & Motor
STARLINK, Unknown motor
Mass
297 kg wet, ~275 kg dry
Launch date (UTC)
2021-09-14 (5 years ago)
Launch vehicle
FALCON 9
Launch site
Air Force Western Test Range (AFWTR)
Object type
Payload
Rocket body
Debris
Shape & HBR
Box + 1 Pan, 10.1 m
Radar Cross Section
13.562 m², Large (>1 m²)

Expand to show TLE details & history
Last TLE update: 1 week ago

TLE from 1 week ago
0 STARLINK-3052
1 49165U 21082AM  26155.12639726 -.00000434  00000-0 -28546-4 0  9995
2 49165  69.9981  76.5402 0005190 225.0553 135.0186 14.98323231260121
Epoch: 2026-06-04T03:02Z
TLE epoch observation values (Epoch: 2026-06-04T03:02:00.723Z)
Latitude
0.00002°
Longitude
138.46206°
Altitude
577.053 km
Speed
7.571 km/s
True Right ascension
05h 06m 09s
True Declination
0° 00' 00"
Sunlit
Object was in daylight at epoch
Visualization orbit readout
Latitude
Unknown
Longitude
Unknown
Altitude
Unknown
Speed
Unknown
Apparent Right ascension
Unknown
Apparent Declination
Unknown
Sunlit
N/A
Visualization observer readout
Local Sidereal Time
18:17:12
Azimuth
Unknown
Elevation
Unknown
Doppler factor
Unknown
Orbital elements
Apogee altitude
573.631 km
Perigee altitude
566.419 km
Semi-major axis
6,948.162 km
Eccentricity
0.00052
Inclination
69.9981°
RAAN
76.5402°
Arg. of periapsis
225.0553°
True anomaly
135.06062°
Mean anomaly
135.0186°
Eccentric anomaly
135.03961°
Mean motion
3.74747 °/min
Orbital period
96.06 mins
BSTAR
-0.000028546
Loading maneuver chart data...
Computing Atmospheric mass density...
Loading historical data...
Loading historical data...
Loading historical data...
Loading historical data...
Loading historical data...
Loading historical data...
Loading historical data...

Documentation

Showing up to 5 results
|